Wind_Speed
12 12 13 14 13 12 13 14 15 15 15 14 13 14 14 15 17 17 14 21 23 22 22 22 24 24 26 27 27 27 28 29 28 27 25 21 25 28 28 28 28 27 27
12 12 14 15 14 15 16 15 15 15 16 16 17 19 19 21 22 24 24 22 27 26 26 26 25 23 24 25 29 30 31 31 32 33 31 28 34 35 34 32 30 30 30
8 10 11 12 12 13 13 14 14 15 16 19 21 22 23 24 24 25 24 24 24 24 28 27 27 27 26 27 26 28 33 34 34 34 35 37 33 37 36 35 34 31 33
5 5 6 7 7 8 8 9 10 10 12 14 15 15 16 17 19 20 21 22 19 14 20 27 27 26 27 28 26 28 32 35 44 42 42 40 36 37 37 38 38 36 36
4 4 4 4 5 5 6 7 8 9 11 12 13 13 12 12 13 11 13 12 15 19 23 25 26 24 27 26 28 32 33 33 39 36 40 40 39 38 38 37 38 39 38
3 3 2 2 2 3 5 6 7 9 11 13 14 13 11 9 6 6 9 9 13 16 18 19 20 21 21 21 21 25 29 32 35 38 41 44 41 40 42 42 39 40 38
1 1 1 2 4 5 7 9 10 11 11 13 11 9 4 4 2 2 1 2 3 9 12 14 14 14 19 20 23 25 28 30 33 34 36 39 41 40 42 45 45 44 44
1 2 2 3 4 5 6 7 7 6 7 9 6 6 3 5 3 2 1 4 9 11 12 13 12 13 15 19 14 19 22 26 30 30 33 36 35 33 37 38 40 41 43
2 2 2 3 4 4 5 5 7 8 6 8 9 4 5 4 12 5 4 6 8 9 13 15 15 14 15 16 19 24 20 19 29 31 29 35 36 30 26 29 31 32 38
3 2 2 2 3 4 6 8 9 9 8 7 3 7 4 4 4 8 5 11 14 15 15 13 15 20 17 17 21 22 24 28 21 21 25 27 29 25 25 26 30 32 32
4 3 2 3 4 5 7 8 8 8 7 6 6 6 3 3 4 7 12 12 15 12 12 13 12 6 11 15 21 21 25 26 29 26 25 21 18 23 24 25 24 25 29
5 4 3 3 4 5 6 6 6 7 7 7 6 6 6 5 6 7 10 14 14 9 12 12 13 13 14 12 14 15 23 26 25 29 30 29 26 22 19 18 21 26 25
6 4 3 3 4 4 5 5 4 5 5 6 6 7 7 6 7 8 10 13 14 16 9 17 17 13 12 13 15 14 22 25 22 24 28 30 30 26 28 29 21 19 19
7 5 4 3 3 3 3 3 3 4 5 5 7 7 6 7 7 8 9 12 14 10 10 15 17 19 21 21 19 13 16 22 19 16 19 23 25 22 27 30 28 26 24
8 6 5 4 2 2 2 2 3 4 5 5 6 6 6 7 8 8 8 8 7 8 14 14 14 20 19 20 18 10 8 14 10 11 13 15 15 15 17 25 29 31 30
9 8 6 5 2 1 1 2 2 3 3 4 5 6 7 8 7 8 8 7 5 6 9 15 18 22 15 13 12 7 1 6 3 4 9 12 12 11 10 14 21 28 29
10 9 7 4 2 1 0 1 2 4 5 6 7 7 8 9 8 8 8 7 7 9 10 12 15 15 13 13 9 4 3 2 2 3 3 6 7 8 10 11 13 16 20
11 9 7 5 4 2 2 3 3 5 5 6 6 7 8 7 7 7 7 8 7 8 9 11 11 12 12 12 9 3 3 7 3 5 2 3 4 4 5 6 7 11 15
11 10 8 6 5 5 5 5 4 4 4 5 6 8 8 7 7 7 8 7 7 7 7 8 10 11 12 11 10 4 3 9 7 5 4 3 6 6 6 4 3 4 8
11 9 7 7 6 6 6 5 4 4 4 5 5 6 7 7 7 8 9 8 8 7 7 8 9 11 13 13 11 10 6 8 11 7 12 2 6 10 10 10 8 6 6
12 9 8 7 7 7 7 5 6 6 5 6 6 6 6 6 8 10 9 9 9 8 8 9 9 11 15 16 16 13 8 4 8 5 8 8 6 9 13 13 13 12 12
13 11 9 8 7 7 6 5 7 7 7 8 8 8 6 8 10 12 12 13 12 10 11 11 11 12 15 16 17 14 12 9 3 8 11 13 8 5 12 17 17 15 14
13 13 11 10 7 8 7 7 7 8 7 8 8 9 6 6 10 10 11 13 13 13 15 14 13 16 17 19 16 14 12 8 13 15 10 11 6 3 11 14 19 19 18
15 13 12 11 8 9 9 8 7 8 8 8 10 10 8 8 9 10 10 11 12 14 16 16 17 17 18 18 16 15 11 5 10 20 11 11 10 3 6 15 19 20 19
15 13 12 11 9 10 10 9 9 9 10 10 11 10 10 10 11 11 10 11 12 13 15 15 15 16 16 17 17 15 16 10 6 18 19 18 21 7 4 16 16 20 21
14 13 12 11 10 11 11 10 11 11 10 9 10 10 10 11 12 11 10 12 11 13 13 13 14 14 16 16 18 20 20 18 17 9 24 18 21 18 5 13 19 24 24
Wind_Direction
224 231 238 242 240 247 250 258 265 266 264 260 264 265 268 274 278 280 279 282 287 283 276 269 266 263 255 247 243 241 242 239 236 232 231 229 242 242 239 237 236 236 234
229 229 233 239 246 256 263 257 256 261 266 271 273 276 278 282 285 284 284 285 286 280 276 273 267 264 260 255 248 242 239 237 239 237 228 232 250 238 235 237 239 234 238
229 233 238 245 251 256 260 265 270 272 275 277 280 281 282 284 283 282 283 286 287 286 277 270 268 264 257 257 255 246 242 239 231 238 242 233 247 236 238 235 238 240 237
222 230 238 245 252 256 261 266 271 274 276 277 278 280 280 278 277 278 280 281 280 284 277 271 267 263 258 245 249 248 243 244 236 255 242 239 244 238 238 238 237 238 237
221 229 244 256 267 281 286 288 291 290 292 294 298 298 297 297 294 292 285 289 275 274 276 275 273 272 267 262 251 248 246 247 246 242 240 245 244 243 245 247 246 243 242
194 197 221 264 294 308 317 323 323 323 315 314 316 311 304 297 294 301 290 286 283 280 279 279 277 276 275 266 266 258 252 246 252 250 247 247 247 242 245 250 251 245 249
144 101 12 355 350 345 339 338 337 331 320 314 316 307 296 286 307 317 322 354 305 299 286 279 282 278 271 267 259 259 256 244 239 244 244 243 240 246 248 249 248 248 250
113 66 35 13 3 354 345 339 335 340 341 339 347 320 289 250 291 284 306 334 289 289 288 285 281 271 264 254 257 244 243 248 241 241 239 244 247 245 247 252 249 243 246
124 81 44 33 23 10 359 3 7 13 9 2 12 10 319 296 323 264 323 318 333 329 314 296 294 286 281 275 260 252 261 242 232 237 245 245 246 239 243 247 249 248 247
130 96 67 48 42 37 31 29 28 31 40 20 17 15 360 298 303 286 274 295 309 315 310 307 319 298 281 280 277 275 263 256 265 254 251 261 250 263 263 263 255 256 247
154 145 114 74 58 47 42 40 37 37 33 38 30 21 8 352 301 302 305 315 311 318 316 316 273 325 327 293 282 284 279 269 264 268 266 269 272 273 273 268 268 265 260
157 150 127 93 69 58 55 51 46 41 40 32 29 18 12 8 332 338 308 321 317 321 326 269 246 272 283 288 301 296 288 287 282 272 273 268 267 267 275 276 268 265 258
168 161 131 95 81 69 60 55 43 32 26 21 21 14 359 347 329 326 321 320 315 324 295 285 290 288 297 302 298 302 302 290 292 282 277 275 270 268 267 273 276 275 276
176 171 145 121 96 76 68 57 42 30 23 14 4 356 352 339 333 331 326 330 330 337 288 297 305 305 305 306 307 295 295 292 298 296 288 285 277 272 264 263 263 265 273
179 174 162 149 144 106 75 48 29 29 21 11 8 356 345 335 335 334 331 330 331 326 319 302 328 308 323 313 300 282 302 295 307 295 295 298 294 283 271 261 262 263 266
179 175 166 160 162 123 45 15 16 32 41 23 24 15 12 352 349 330 321 311 308 296 289 313 314 315 337 333 310 251 100 306 298 264 280 286 296 292 280 272 267 263 267
177 177 174 170 169 149 67 2 58 62 55 51 39 26 16 3 355 346 330 320 318 303 300 306 319 326 339 343 338 191 105 315 349 158 242 276 288 295 291 267 266 268 270
180 180 174 175 177 181 148 110 85 75 69 54 45 34 32 26 7 355 349 352 342 338 326 325 323 329 339 345 7 108 108 11 89 79 141 341 330 310 284 287 279 275 270
185 176 174 174 172 164 132 111 93 89 77 60 45 39 36 41 25 3 9 3 358 345 340 339 335 343 347 358 6 50 64 36 47 63 60 47 33 35 32 20 349 308 290
173 167 169 173 162 150 139 124 125 117 84 62 60 59 51 47 38 35 22 17 20 4 3 4 356 356 1 3 21 24 15 33 22 55 22 31 42 41 48 45 49 43 26
165 170 166 165 152 154 139 130 135 111 94 75 67 59 43 37 44 47 46 45 46 29 35 29 17 12 10 16 22 17 26 337 334 24 53 12 51 35 31 39 34 30 27
163 159 158 142 150 157 143 160 120 105 94 91 84 72 49 42 55 53 49 53 53 58 50 46 31 24 19 18 29 23 34 36 328 331 53 4 72 53 30 35 30 27 22
162 158 149 145 152 154 157 153 136 109 98 103 106 98 86 69 68 58 52 54 56 57 57 55 44 39 35 34 34 31 29 35 33 25 69 13 81 70 56 26 27 23 22
173 167 156 148 152 156 150 142 127 114 99 99 105 104 101 89 82 78 64 61 60 57 55 53 48 43 42 41 42 37 18 14 23 30 48 36 35 121 65 27 25 26 22
173 163 162 161 162 154 152 148 134 117 105 94 100 106 106 96 88 81 72 66 62 59 55 51 49 48 46 44 45 53 49 47 18 25 34 46 27 79 120 18 14 20 23
173 167 162 158 161 161 156 155 131 115 110 99 90 90 98 96 87 78 74 70 61 59 54 51 50 50 49 49 47 48 50 46 44 35 25 38 25 31 17 355 10 10 12
Height
1533 1535 1536 1536 1537 1538 1539 1539 1539 1539 1539 1540 1540 1540 1539 1539 1539 1539 1539 1538 1537 1537 1536 1535 1534 1535 1536 1537 1537 1539 1540 1542 1542 1543 1544 1546 1549 1555 1557 1558 1559 1562 1563
1532 1532 1532 1533 1534 1535 1535 1536 1536 1535 1536 1536 1536 1536 1535 1535 1534 1533 1533 1532 1532 1532 1531 1530 1530 1530 1530 1531 1531 1533 1534 1535 1537 1537 1537 1538 1539 1545 1548 1552 1553 1555 1558
1530 1529 1529 1530 1531 1531 1532 1532 1532 1532 1532 1532 1531 1531 1530 1529 1528 1528 1527 1527 1526 1526 1525 1524 1523 1524 1524 1524 1524 1526 1528 1530 1530 1532 1533 1533 1535 1538 1541 1544 1548 1549 1552
1527 1527 1527 1527 1528 1528 1528 1528 1527 1527 1527 1527 1527 1526 1526 1525 1524 1523 1523 1522 1522 1522 1519 1515 1517 1517 1516 1518 1519 1520 1521 1522 1523 1525 1526 1527 1529 1532 1535 1538 1540 1544 1546
1525 1525 1524 1524 1524 1525 1525 1524 1524 1524 1523 1522 1522 1522 1521 1520 1519 1518 1517 1517 1515 1514 1514 1513 1512 1512 1510 1511 1513 1513 1514 1515 1516 1517 1519 1521 1523 1525 1528 1531 1533 1536 1539
1524 1523 1523 1523 1523 1522 1522 1521 1520 1519 1519 1518 1517 1517 1516 1516 1515 1514 1512 1512 1510 1509 1509 1509 1509 1508 1506 1506 1507 1507 1507 1507 1508 1509 1511 1513 1514 1516 1519 1522 1525 1528 1531
1523 1522 1521 1520 1520 1519 1519 1518 1517 1518 1517 1516 1516 1515 1515 1513 1512 1511 1509 1508 1506 1505 1505 1504 1505 1506 1503 1503 1502 1499 1500 1499 1499 1500 1502 1500 1504 1508 1509 1510 1514 1518 1521
1520 1519 1518 1518 1517 1517 1517 1517 1516 1516 1516 1513 1513 1514 1513 1513 1510 1509 1508 1505 1503 1503 1503 1502 1501 1500 1501 1498 1496 1494 1493 1493 1494 1494 1494 1496 1499 1500 1501 1501 1503 1507 1511
1518 1517 1517 1517 1517 1517 1516 1516 1515 1513 1515 1513 1511 1514 1513 1511 1508 1510 1509 1508 1505 1503 1501 1499 1499 1497 1496 1495 1492 1491 1487 1486 1485 1487 1489 1490 1492 1492 1493 1494 1496 1500 1502
1516 1516 1516 1516 1516 1515 1514 1513 1512 1512 1512 1512 1513 1511 1511 1510 1510 1507 1506 1504 1504 1502 1500 1499 1498 1492 1491 1491 1489 1487 1483 1481 1481 1481 1481 1484 1484 1484 1486 1487 1490 1492 1493
1515 1515 1515 1514 1513 1512 1511 1511 1511 1511 1510 1509 1508 1508 1508 1509 1508 1507 1503 1500 1500 1499 1499 1496 1493 1493 1490 1486 1482 1482 1478 1476 1476 1477 1479 1479 1477 1478 1480 1480 1483 1484 1486
1512 1512 1512 1511 1511 1511 1510 1510 1510 1509 1509 1508 1506 1504 1503 1502 1503 1503 1502 1498 1496 1498 1495 1490 1486 1485 1485 1483 1479 1478 1474 1471 1471 1471 1471 1473 1473 1473 1473 1475 1477 1478 1479
1510 1510 1511 1510 1509 1508 1508 1508 1508 1507 1507 1507 1505 1503 1502 1503 1503 1502 1502 1497 1495 1493 1494 1488 1484 1483 1481 1479 1477 1476 1469 1466 1467 1466 1466 1466 1467 1467 1468 1472 1473 1473 1473
1507 1507 1507 1508 1508 1508 1507 1507 1506 1505 1503 1503 1501 1501 1501 1501 1501 1499 1499 1496 1491 1492 1491 1486 1483 1480 1477 1476 1474 1473 1467 1464 1463 1463 1461 1460 1458 1460 1463 1465 1467 1468 1469
1504 1506 1505 1505 1508 1506 1505 1505 1504 1502 1502 1501 1499 1499 1500 1499 1499 1500 1498 1497 1495 1492 1490 1486 1484 1479 1476 1472 1468 1467 1465 1461 1462 1460 1458 1457 1455 1456 1459 1459 1459 1460 1462
1502 1504 1503 1503 1505 1505 1504 1504 1502 1500 1498 1500 1498 1498 1498 1497 1498 1497 1497 1497 1494 1492 1491 1487 1481 1477 1473 1468 1464 1463 1462 1460 1460 1458 1455 1454 1452 1451 1453 1454 1455 1455 1455
1498 1500 1499 1500 1502 1503 1502 1505 1501 1499 1498 1498 1495 1494 1496 1495 1497 1498 1496 1494 1490 1488 1488 1485 1481 1477 1472 1466 1464 1462 1460 1458 1457 1455 1453 1453 1450 1449 1449 1451 1451 1451 1450
1496 1497 1496 1497 1499 1500 1501 1502 1503 1499 1499 1497 1496 1493 1492 1496 1500 1500 1498 1492 1490 1488 1487 1483 1481 1477 1472 1467 1463 1461 1460 1458 1455 1454 1454 1452 1449 1449 1450 1448 1447 1447 1446
1496 1494 1494 1496 1496 1498 1499 1499 1500 1500 1498 1495 1495 1495 1495 1497 1498 1499 1494 1492 1489 1489 1487 1483 1482 1478 1472 1466 1463 1460 1459 1460 1456 1455 1454 1453 1451 1451 1449 1448 1446 1444 1443
1494 1492 1494 1495 1495 1497 1497 1496 1499 1499 1495 1494 1492 1493 1494 1496 1496 1495 1493 1490 1488 1489 1486 1484 1482 1478 1472 1467 1463 1461 1460 1459 1457 1457 1458 1455 1454 1453 1451 1446 1446 1445 1442
1489 1491 1493 1494 1495 1497 1496 1499 1500 1496 1495 1491 1495 1494 1494 1496 1494 1491 1492 1489 1487 1488 1486 1485 1484 1480 1474 1468 1463 1462 1464 1463 1461 1459 1460 1456 1457 1457 1451 1446 1447 1444 1440
1486 1489 1491 1494 1495 1494 1496 1500 1499 1497 1493 1494 1494 1496 1495 1498 1494 1492 1493 1491 1488 1488 1486 1485 1484 1480 1475 1469 1465 1465 1466 1466 1466 1461 1457 1456 1456 1457 1452 1449 1448 1444 1442
1486 1486 1489 1492 1493 1494 1496 1497 1495 1494 1498 1493 1495 1496 1497 1499 1495 1494 1495 1492 1490 1490 1488 1486 1484 1480 1477 1472 1469 1468 1469 1468 1465 1459 1457 1458 1453 1456 1454 1453 1450 1446 1443
1484 1485 1487 1490 1492 1494 1496 1496 1493 1494 1496 1497 1495 1495 1498 1498 1495 1496 1497 1494 1492 1492 1489 1488 1486 1483 1479 1476 1472 1470 1471 1470 1467 1463 1458 1457 1454 1454 1455 1453 1451 1448 1446
1482 1483 1488 1488 1491 1494 1496 1494 1492 1494 1496 1499 1496 1497 1498 1498 1496 1497 1498 1496 1495 1493 1492 1490 1488 1485 1482 1479 1476 1474 1471 1471 1469 1465 1460 1456 1455 1453 1454 1454 1453 1450 1446
1480 1483 1485 1487 1491 1493 1494 1495 1493 1495 1498 1502 1500 1499 1499 1499 1497 1498 1498 1496 1496 1495 1493 1492 1490 1488 1485 1482 1479 1476 1474 1472 1469 1466 1462 1459 1457 1454 1455 1453 1449 1445 1442